User: anonymous   Login
Location: ActonStarParty
(42.4766°N, 71.4538°W)
Time: 04:48:21
(UTC-04:00)
Language:

Cosmos 1300 - Orbit

View from above orbital plane
View from above orbital plane
View from above satellite
View from above satellite

Ground track
Ground track

The orbit data is extracted from the following two-line orbital elements,

1 12785U 81082A   15107.82810961  .00006478  00000-0  35455-3 0  9991
2 12785 082.5032 134.3865 0003556 100.5012 317.0901 15.14077235831977
Epoch (UTC): 17 April 2015 19:52:28
Eccentricity: 0.0003556
inclination: 82.5032°
perigee height: 521 km
apogee height: 526 km
right ascension of ascending node: 134.3865°
argument of perigee: 100.5012°
revolutions per day: 15.14077235
mean anomaly at epoch: 317.0901°
orbit number at epoch: 83197

The dashed part of the orbit path shows where the satellite is in the earth's shadow,  

DLR